Temperature
12 13 12 11 11 10 10 9 9 9 8 8 8 7 7 7 7 7 7 7 7 6 6 6 6 6 7 7 8 8 9 10 9 9 9 8 8 8 8 9 10 10 10
14 13 12 11 11 10 10 9 9 9 8 8 8 7 7 7 7 7 6 6 6 6 6 6 6 6 6 6 7 8 9 9 8 8 8 8 7 7 7 7 8 8 9
13 13 12 11 11 10 10 9 9 9 8 8 8 7 7 7 7 6 6 6 6 6 6 5 5 5 6 6 6 7 8 8 8 8 8 8 6 6 6 6 6 7 7
13 12 12 11 11 10 10 9 9 9 8 8 8 7 7 7 7 6 6 6 6 6 6 6 5 5 6 6 7 7 8 7 8 8 8 8 6 5 5 5 5 5 6
13 12 12 11 11 10 10 9 9 9 9 8 8 8 7 7 7 7 7 6 6 6 6 6 6 6 6 6 7 7 8 7 8 8 8 7 6 5 5 5 5 5 5
12 12 12 11 10 10 10 9 9 9 9 9 8 8 8 7 7 7 7 7 7 7 6 6 6 6 6 7 7 7 8 8 8 8 8 8 7 5 5 5 5 5 5
12 12 12 11 11 10 10 9 9 9 9 9 9 8 8 8 8 7 7 7 7 7 7 7 7 7 7 7 7 7 8 7 7 7 8 8 7 5 5 4 4 4 4
12 11 12 11 11 10 10 9 9 9 9 9 9 9 8 8 8 8 8 7 7 7 7 7 7 7 7 7 7 7 7 7 7 7 7 7 6 5 5 5 5 4 4
12 11 11 11 11 10 10 9 9 9 9 9 9 9 9 8 8 8 8 8 7 7 7 7 7 7 7 7 7 7 7 7 7 7 7 7 6 5 5 5 4 4 4
11 11 11 11 11 10 10 10 9 9 9 9 9 9 9 8 8 8 8 8 7 7 7 7 7 7 7 7 7 7 7 7 6 6 6 6 6 5 5 4 4 4 4
11 11 10 10 10 10 10 10 9 9 9 9 9 9 9 8 8 8 8 7 7 7 7 7 7 6 7 7 7 6 6 6 6 6 6 6 6 5 5 4 4 3 3
13 12 11 10 10 10 9 9 9 9 9 9 9 9 8 8 8 8 8 7 7 7 7 7 6 6 6 6 6 6 6 6 6 6 6 5 5 5 4 4 3 3 3
14 13 12 11 10 9 9 9 9 9 9 9 9 9 8 8 8 7 7 7 7 7 7 7 6 6 6 6 6 6 6 5 5 5 5 5 5 4 4 3 3 2 2
14 14 13 11 10 10 9 9 9 9 9 9 9 9 8 8 8 8 7 7 7 7 7 6 6 6 6 6 5 5 5 5 5 5 5 4 4 4 4 3 3 2 2
14 14 13 12 11 10 9 9 9 9 9 9 9 8 8 8 8 7 7 7 7 6 6 6 6 5 5 5 5 5 5 5 4 4 4 4 4 3 3 2 2 2 1
14 14 14 12 12 11 10 10 9 9 9 9 9 9 8 8 8 7 7 7 7 6 6 6 6 5 5 5 5 5 4 4 4 4 3 3 3 3 2 2 1 1 1
15 14 14 13 12 11 11 10 10 9 9 9 9 9 8 8 8 7 7 7 7 6 6 6 5 5 5 4 4 4 4 4 4 3 3 3 2 2 2 1 1 1 0
14 13 13 13 12 11 11 10 10 9 9 9 9 9 9 8 8 7 7 7 6 6 6 5 5 5 5 4 4 4 4 3 3 3 3 2 2 2 1 1 0 -0 -0
14 13 12 12 12 12 11 10 10 9 9 9 9 9 9 8 8 7 7 7 6 6 6 5 5 5 4 4 4 3 3 3 3 3 2 2 2 1 1 0 -0 -1 -1
15 13 12 12 12 11 10 10 9 9 9 8 8 9 9 9 8 8 7 7 6 6 6 5 5 5 4 4 3 3 3 3 3 2 2 2 1 1 0 -0 -0 -1 -1
15 13 12 12 11 11 10 10 10 10 10 9 9 9 9 9 8 8 8 7 7 6 6 6 5 4 4 3 2 2 2 2 2 2 2 2 1 1 0 -0 -1 -1 -2
15 14 12 12 11 11 12 12 11 11 10 10 9 9 9 9 8 8 8 7 7 6 6 5 5 4 4 3 2 1 0 1 1 2 2 1 1 0 -0 -1 -1 -2 -2
14 14 13 12 11 11 11 10 9 8 8 8 9 10 9 9 9 8 8 8 7 6 6 6 5 4 4 3 2 1 0 0 0 0 0 0 0 0 -0 -1 -1 -2 -2
14 13 12 12 11 10 10 10 9 10 11 12 11 11 10 9 8 8 8 7 6 6 6 6 5 4 4 3 2 1 1 1 -0 -1 -1 -1 -1 -1 -1 -1 -2 -2 -3
14 13 13 12 11 10 10 10 9 10 11 10 9 9 8 8 8 7 7 6 6 5 5 5 4 4 4 3 3 2 1 -0 -1 -2 -2 -1 -1 -1 -1 -1 -2 -2 -3
14 14 13 12 12 11 10 10 9 10 10 9 8 8 8 7 7 7 6 5 5 5 4 4 3 3 3 3 2 2 1 0 -0 -1 -2 -2 -2 -1 -2 -2 -2 -3 -3
Wind_Speed
11 21 21 18 16 15 13 12 12 11 11 11 12 12 12 13 13 14 14 15 16 16 17 17 18 19 20 20 21 21 21 21 20 21 21 23 24 24 25 25 23 22 25
14 23 22 20 18 16 14 13 12 11 11 11 11 11 11 12 12 13 13 14 14 15 16 16 17 18 18 19 19 19 19 19 19 19 19 20 22 23 24 24 24 22 24
18 23 22 21 19 17 15 14 13 12 11 11 11 11 11 11 11 12 12 13 13 14 14 15 16 16 17 17 18 18 18 17 17 18 18 18 18 22 22 22 23 23 23
21 23 21 21 20 18 16 15 14 12 12 11 11 10 10 10 10 10 11 11 12 12 13 13 14 15 15 16 17 17 16 16 17 16 15 17 17 20 21 21 21 22 22
20 23 23 23 21 19 17 16 14 13 12 11 10 10 9 9 9 10 10 10 11 11 11 12 13 13 14 15 15 16 15 14 15 14 15 17 16 18 20 20 20 21 21
16 23 24 23 21 20 18 16 15 14 12 11 11 10 9 9 9 9 9 9 9 9 10 10 11 12 12 13 14 14 14 13 13 12 14 16 16 18 19 20 20 20 21
13 22 24 23 22 20 19 17 16 14 13 12 11 10 9 8 8 8 7 7 7 8 8 9 9 10 11 12 13 13 13 12 12 11 13 15 17 18 19 19 20 20 20
12 20 24 23 22 21 19 18 17 15 14 13 11 10 9 8 7 7 7 6 6 6 6 7 8 9 9 10 11 12 12 11 11 11 13 14 17 18 18 19 19 20 20
15 18 22 21 21 21 20 19 18 16 15 14 12 11 10 8 7 7 6 5 5 4 4 5 6 6 7 9 10 10 10 10 11 11 11 13 16 17 17 18 18 19 20
10 12 19 21 20 20 20 20 19 18 16 15 14 12 11 9 8 7 6 5 4 3 2 3 3 4 5 6 8 8 8 9 9 10 10 12 14 15 16 16 17 18 18
12 9 14 19 20 21 20 20 20 19 18 16 15 14 12 11 11 9 7 6 5 3 2 0 1 2 3 3 5 6 7 8 8 7 7 10 13 14 14 15 16 17 17
15 14 9 14 19 21 20 20 19 18 18 17 16 16 14 13 12 10 10 8 6 5 5 4 3 3 3 3 3 4 5 7 7 5 6 9 11 13 13 14 14 15 16
15 14 12 11 17 18 16 18 17 17 18 19 19 20 17 14 11 10 11 10 9 9 9 8 7 6 4 1 3 4 4 5 5 5 5 8 10 12 13 13 14 14 15
14 16 14 12 12 16 16 15 16 16 16 17 19 22 18 13 12 13 13 14 14 13 12 9 9 8 5 4 4 4 4 4 5 5 5 8 10 11 12 13 13 14 15
17 17 15 13 11 13 13 13 14 14 16 18 19 20 20 14 11 12 13 14 14 13 12 10 9 8 7 6 5 5 5 6 7 7 7 9 11 12 13 13 14 14 15
18 18 17 16 13 13 11 9 11 15 16 18 18 20 21 18 15 13 12 12 13 13 12 12 10 7 6 6 6 7 7 9 9 9 10 10 12 13 14 14 14 15 16
16 17 18 17 14 13 11 12 13 15 17 16 18 22 22 20 18 15 11 10 13 15 13 11 10 7 5 5 5 8 9 10 10 11 12 12 12 13 15 15 15 16 17
14 16 18 17 16 15 12 12 12 15 16 16 18 21 23 23 21 17 11 10 16 16 13 8 5 4 5 5 5 5 8 9 11 13 14 14 14 14 15 16 17 17 18
16 15 16 17 17 15 13 11 12 13 14 16 18 19 22 24 24 19 13 13 17 13 10 8 6 6 6 6 6 6 5 6 9 13 14 15 16 16 16 16 18 18 19
16 15 15 16 15 14 11 9 9 10 9 14 17 19 22 24 25 21 15 15 16 9 8 7 7 7 6 5 6 6 6 6 8 10 12 15 16 17 17 17 18 18 19
14 14 16 16 16 14 12 13 13 13 10 9 12 19 23 23 24 22 14 13 13 11 11 11 8 8 8 5 3 5 6 10 11 9 11 11 13 16 17 18 18 18 18
13 13 14 15 16 15 13 12 9 9 8 9 8 15 22 23 24 23 17 12 12 11 13 13 10 8 8 8 5 3 4 5 9 12 8 9 9 13 14 17 18 18 19
10 13 12 14 14 15 12 7 6 6 6 9 11 13 16 23 24 23 21 16 13 14 14 16 14 14 11 10 8 6 5 7 3 4 8 9 9 8 9 14 17 19 20
8 9 11 11 12 13 13 11 12 13 16 17 12 11 12 19 21 24 21 20 15 14 15 16 17 13 11 9 8 9 6 5 5 3 4 7 9 10 9 11 14 18 20
6 7 9 10 11 12 13 15 14 16 15 10 10 12 14 14 18 21 21 18 17 16 16 16 16 16 15 13 10 7 8 7 6 6 5 5 6 7 8 8 11 14 18
4 5 7 9 10 11 13 14 16 18 15 13 13 13 13 12 14 18 19 17 17 16 17 17 16 17 16 15 13 10 8 6 8 9 11 7 7 6 8 7 8 11 16
Wind_Direction
140 149 152 148 144 140 133 126 118 111 106 100 94 89 84 80 76 72 69 66 63 60 58 57 55 54 52 51 50 48 47 46 47 47 45 43 43 44 42 40 40 34 35
141 150 154 151 149 145 140 134 127 121 114 108 102 96 90 85 80 76 72 68 65 61 58 56 55 54 52 51 50 48 47 47 48 48 45 34 36 41 41 39 38 35 34
144 150 156 155 153 149 146 141 136 130 123 116 110 103 97 91 85 80 75 71 67 63 59 56 55 54 52 51 49 48 46 47 49 50 41 22 21 38 40 38 36 35 33
148 151 158 158 156 154 151 147 143 138 132 125 118 111 104 98 92 85 79 74 69 65 60 57 55 53 51 50 48 45 45 47 51 51 37 23 15 33 37 36 34 34 32
150 154 159 160 159 158 156 153 150 145 140 134 127 120 113 105 98 90 84 77 71 66 61 57 53 51 50 48 46 43 42 46 53 48 40 25 8 27 34 33 31 31 30
151 153 157 163 163 163 161 159 156 152 147 142 136 130 123 116 108 99 90 82 75 68 62 57 52 49 46 44 42 40 39 45 56 48 45 25 7 24 30 29 27 27 26
154 150 159 167 168 167 166 165 162 159 155 150 146 141 134 127 119 110 100 89 80 72 63 57 50 45 42 40 37 35 34 38 57 50 47 22 11 23 25 25 24 22 21
156 151 162 171 172 171 171 170 168 166 162 159 156 151 146 140 133 125 114 102 89 77 66 57 48 41 36 35 32 30 29 33 43 40 47 21 16 19 20 20 19 18 17
160 155 161 174 175 176 176 175 174 172 170 167 165 162 158 154 149 141 133 122 107 90 73 58 46 36 30 29 27 24 24 30 38 41 39 17 14 14 15 15 13 12 12
165 162 163 174 176 177 179 180 179 178 177 175 173 169 168 167 163 161 156 148 137 120 93 61 38 25 19 22 21 17 19 21 34 47 41 14 10 9 9 9 7 6 5
177 176 169 175 177 177 178 185 182 182 182 180 177 177 176 176 177 179 172 168 169 171 172 166 348 343 338 346 6 8 12 8 27 41 40 9 4 2 2 2 0 359 358
187 184 182 178 177 177 182 180 178 181 182 178 176 179 186 199 190 179 174 181 193 203 213 222 248 270 296 323 333 347 360 4 9 14 15 357 353 352 352 352 351 350 349
189 185 187 185 177 177 177 171 178 181 178 185 184 180 192 198 177 165 170 190 202 213 222 220 236 239 255 277 314 321 342 345 339 349 346 337 338 339 339 339 340 339 338
190 192 189 186 178 178 175 175 178 180 179 188 192 182 188 188 180 185 189 190 199 206 211 212 223 224 227 243 258 287 302 300 306 314 311 314 319 322 323 325 326 327 328
195 193 192 187 183 179 177 180 183 182 181 185 188 188 186 185 189 191 198 198 200 201 198 210 223 222 218 233 242 256 271 280 284 288 289 293 299 303 306 308 311 313 316
198 194 191 192 187 182 183 183 186 185 183 185 186 192 193 190 193 194 196 199 201 203 202 206 218 218 220 226 236 250 258 266 269 270 272 276 283 288 291 293 297 300 304
198 192 191 192 189 186 188 188 191 190 186 189 189 194 198 197 196 195 195 197 201 203 203 207 222 218 224 229 232 242 246 249 256 262 265 264 265 272 279 282 284 289 292
197 191 190 192 193 191 190 191 194 194 193 195 193 194 199 201 200 196 197 199 199 199 198 196 206 202 216 221 229 237 238 237 243 251 256 255 253 254 262 271 277 281 284
196 189 187 188 191 193 190 191 197 199 200 198 197 197 200 201 202 199 199 201 198 195 194 201 199 199 209 217 224 231 232 235 239 246 245 245 244 243 244 255 266 273 278
190 186 185 186 189 189 189 192 198 208 206 202 200 201 200 202 202 201 202 201 197 192 195 198 202 200 205 209 231 242 236 233 239 238 238 240 239 238 238 241 249 260 269
181 183 184 187 189 189 194 199 203 209 208 207 205 204 203 203 202 202 205 202 200 199 200 197 194 201 206 194 214 261 257 241 238 233 228 226 229 233 234 235 238 243 252
179 185 187 189 190 195 201 202 203 204 209 213 211 211 207 205 204 206 206 204 203 203 202 200 196 198 203 191 181 200 264 264 237 230 216 216 221 227 229 234 236 237 241
181 187 194 193 194 196 194 190 196 203 212 217 217 216 212 209 208 208 208 207 206 205 208 205 199 198 204 201 190 178 199 228 258 241 219 218 217 219 223 230 234 237 240
192 188 192 194 195 193 190 198 200 209 219 222 219 217 214 214 214 212 211 210 210 210 211 209 205 202 195 202 204 210 207 181 188 255 261 228 220 223 223 231 236 234 236
189 187 192 197 201 196 198 203 210 222 229 229 222 223 220 219 218 217 214 213 215 215 213 210 208 205 206 206 201 192 215 224 210 203 240 237 235 230 227 225 231 232 234
181 185 192 203 213 207 206 210 215 225 230 229 228 228 225 223 221 219 217 217 218 218 217 214 212 210 210 210 208 201 189 192 207 211 224 229 232 234 231 229 227 231 235
Height
1553 1555 1558 1560 1561 1563 1564 1565 1565 1566 1566 1566 1566 1566 1565 1565 1564 1564 1564 1563 1562 1562 1561 1560 1559 1557 1556 1554 1553 1552 1551 1551 1551 1551 1551 1551 1552 1551 1550 1549 1549 1548 1549
1550 1553 1556 1558 1560 1561 1563 1563 1564 1565 1565 1565 1565 1565 1565 1565 1564 1564 1563 1563 1562 1561 1561 1560 1559 1557 1556 1555 1553 1552 1552 1551 1551 1551 1550 1550 1551 1551 1550 1550 1549 1549 1548
1549 1550 1553 1556 1558 1560 1561 1562 1563 1564 1564 1564 1565 1565 1564 1564 1564 1564 1563 1562 1562 1561 1560 1559 1558 1557 1556 1555 1554 1553 1552 1551 1551 1550 1550 1550 1550 1552 1551 1550 1550 1549 1548
1547 1548 1551 1554 1556 1558 1559 1561 1562 1563 1563 1563 1564 1564 1564 1564 1563 1563 1562 1562 1561 1561 1560 1559 1558 1557 1556 1555 1554 1553 1552 1552 1551 1551 1550 1550 1550 1552 1551 1550 1549 1549 1548
1545 1546 1549 1551 1554 1556 1558 1559 1560 1561 1562 1562 1563 1563 1563 1563 1563 1562 1562 1561 1561 1560 1559 1559 1558 1557 1556 1555 1554 1554 1553 1552 1551 1551 1550 1550 1550 1551 1551 1550 1549 1548 1548
1544 1545 1546 1549 1552 1554 1556 1557 1559 1560 1561 1561 1561 1562 1562 1562 1561 1561 1561 1561 1560 1560 1559 1558 1558 1557 1556 1555 1555 1554 1553 1552 1552 1551 1550 1550 1550 1551 1550 1549 1548 1548 1547
1542 1543 1544 1547 1550 1552 1554 1555 1557 1558 1559 1560 1560 1560 1561 1561 1560 1560 1560 1560 1560 1559 1559 1558 1557 1557 1556 1555 1555 1554 1553 1553 1552 1551 1550 1550 1549 1550 1549 1549 1548 1547 1546
1540 1540 1542 1545 1547 1550 1551 1553 1555 1556 1557 1558 1559 1559 1559 1559 1559 1559 1559 1559 1559 1558 1558 1557 1557 1556 1555 1555 1554 1554 1553 1552 1552 1551 1550 1549 1549 1549 1548 1547 1547 1546 1545
1538 1539 1539 1542 1545 1547 1549 1551 1552 1554 1555 1556 1557 1557 1558 1558 1558 1558 1558 1558 1558 1557 1557 1556 1556 1555 1555 1554 1554 1553 1552 1552 1551 1550 1550 1549 1548 1548 1547 1546 1546 1545 1544
1536 1536 1536 1539 1541 1543 1546 1548 1550 1551 1552 1553 1554 1555 1556 1556 1556 1556 1556 1556 1556 1556 1556 1555 1555 1554 1554 1553 1553 1552 1552 1551 1550 1549 1549 1548 1547 1547 1546 1545 1544 1543 1543
1532 1533 1534 1535 1537 1540 1542 1544 1546 1548 1549 1551 1552 1553 1553 1554 1554 1554 1555 1554 1554 1554 1554 1554 1553 1553 1552 1552 1551 1551 1550 1550 1549 1548 1548 1547 1546 1545 1545 1544 1543 1542 1541
1526 1528 1530 1532 1534 1536 1538 1540 1542 1544 1546 1547 1549 1550 1550 1551 1551 1551 1552 1552 1552 1552 1552 1552 1551 1551 1550 1550 1549 1549 1549 1548 1547 1546 1546 1545 1544 1543 1543 1542 1541 1540 1539
1521 1523 1525 1528 1530 1532 1534 1535 1537 1539 1541 1543 1545 1546 1547 1548 1548 1549 1549 1550 1550 1549 1549 1549 1549 1549 1548 1548 1547 1547 1546 1546 1545 1544 1544 1543 1542 1541 1540 1539 1539 1538 1537
1516 1518 1520 1523 1526 1527 1530 1531 1532 1534 1536 1538 1540 1542 1543 1544 1545 1545 1546 1546 1546 1546 1546 1546 1546 1546 1545 1545 1545 1544 1544 1543 1542 1542 1541 1540 1539 1539 1538 1537 1536 1535 1534
1510 1512 1515 1518 1520 1522 1524 1526 1528 1529 1531 1534 1536 1538 1539 1540 1541 1541 1542 1542 1542 1542 1543 1543 1543 1542 1542 1542 1541 1541 1540 1540 1539 1538 1538 1537 1536 1535 1535 1534 1533 1532 1531
1504 1507 1509 1512 1515 1517 1519 1521 1523 1525 1527 1529 1531 1533 1534 1535 1537 1537 1538 1538 1538 1539 1539 1539 1539 1539 1538 1538 1538 1537 1537 1536 1535 1535 1534 1533 1533 1532 1531 1530 1529 1529 1528
1499 1501 1503 1506 1509 1511 1513 1516 1518 1520 1522 1523 1525 1528 1529 1530 1532 1532 1533 1533 1534 1534 1535 1535 1535 1535 1534 1534 1533 1533 1532 1532 1531 1530 1529 1528 1528 1527 1527 1526 1525 1524 1524
1495 1496 1498 1501 1503 1505 1508 1510 1513 1515 1516 1518 1519 1521 1523 1525 1526 1527 1527 1528 1529 1529 1529 1530 1530 1529 1529 1529 1528 1528 1527 1526 1526 1525 1524 1523 1523 1522 1522 1521 1520 1520 1519
1488 1491 1493 1495 1497 1500 1503 1505 1508 1509 1511 1512 1513 1514 1516 1518 1520 1520 1521 1522 1523 1523 1523 1524 1524 1524 1524 1523 1523 1522 1521 1521 1520 1520 1519 1518 1517 1517 1516 1516 1515 1514 1513
1482 1486 1488 1490 1492 1495 1498 1500 1502 1503 1504 1505 1506 1507 1508 1510 1512 1513 1514 1515 1516 1516 1516 1516 1517 1517 1517 1517 1517 1516 1515 1514 1514 1513 1512 1512 1511 1510 1510 1509 1509 1508 1507
1477 1480 1482 1484 1486 1489 1490 1491 1492 1494 1496 1497 1498 1499 1501 1502 1503 1505 1506 1507 1507 1507 1508 1509 1510 1510 1510 1511 1510 1508 1507 1507 1506 1505 1505 1504 1504 1504 1503 1502 1502 1501 1500
1473 1476 1478 1479 1481 1482 1483 1485 1487 1489 1490 1491 1492 1492 1492 1493 1494 1495 1496 1497 1498 1499 1499 1500 1500 1501 1502 1503 1503 1502 1500 1498 1496 1497 1497 1497 1497 1497 1496 1495 1495 1494 1493
1471 1472 1474 1475 1476 1477 1479 1482 1483 1483 1483 1483 1482 1482 1483 1484 1485 1485 1486 1487 1488 1489 1489 1489 1491 1492 1492 1493 1493 1494 1493 1489 1489 1488 1488 1488 1489 1488 1488 1488 1487 1486 1486
1468 1469 1470 1471 1472 1473 1474 1475 1475 1474 1472 1471 1473 1474 1475 1476 1476 1476 1476 1477 1477 1477 1478 1479 1480 1481 1482 1482 1483 1482 1483 1484 1484 1481 1480 1480 1480 1480 1480 1480 1479 1479 1478
1466 1466 1466 1467 1468 1469 1469 1469 1469 1467 1466 1467 1468 1467 1467 1466 1466 1466 1466 1466 1466 1466 1466 1467 1468 1469 1469 1471 1471 1471 1473 1474 1474 1474 1471 1470 1471 1471 1472 1472 1471 1471 1470
1466 1465 1464 1464 1464 1464 1464 1464 1463 1461 1461 1461 1460 1458 1458 1457 1456 1455 1455 1455 1455 1455 1455 1456 1457 1458 1458 1459 1460 1460 1460 1461 1461 1462 1461 1460 1461 1461 1463 1463 1462 1462 1462